Location: Unspecified
(0.0000°N, 0.0000°E)
Time: 11:30:46
(UTC+00:00)

Altair - Pass Details

Date: 19 November 2019
Orbit: 1502 x 1682 km, 47.2° (Epoch: 07 December)

Event Time Altitude Azimuth Distance (km) Brightness Sun altitude
Rises 21:11:02 0° 187° (S) 4,843 10.5 -47.4°
Reaches altitude 10° 21:16:45 10° 162° (SSE) 3,812 9.6 -48.7°
Enters shadow 21:16:51 10° 161° (SSE) 3,801 9.6 -48.7°
